| time (UTC) | temp F | wind direction | speed MPH | gust MPH | rain 1hr in | rain 24hr in | rain mn in | humidity % | barometer mb |
| 20260903143603 | 60 | 270 | 7.0 | 13.0 | 0.00 | 0.03 | 0.00 | 97 | 1014.1 |
| 20260903143003 | 59 | 270 | 7.0 | 12.0 | 0.00 | 0.03 | 0.00 | 97 | 1014.1 |
| 20260903142403 | 59 | 270 | 6.0 | 10.0 | 0.00 | 0.03 | 0.00 | 98 | 1014.1 |
| 20260903141803 | 59 | 271 | 6.0 | 11.0 | 0.00 | 0.03 | 0.00 | 98 | 1014.0 |
| 20260903141203 | 59 | 271 | 7.0 | 11.0 | 0.00 | 0.03 | 0.00 | 98 | 1014.0 |
| 20260903140603 | 59 | 271 | 7.0 | 13.0 | 0.00 | 0.03 | 0.00 | 98 | 1014.0 |
| 20260903140004 | 59 | 272 | 7.0 | 10.0 | 0.00 | 0.03 | 0.00 | 98 | 1014.0 |
| 20260903135404 | 59 | 272 | 8.0 | 11.0 | 0.00 | 0.03 | 0.00 | 98 | 1014.1 |
| 20260903134804 | 59 | 271 | 7.0 | 11.0 | 0.00 | 0.03 | 0.00 | 98 | 1014.0 |
| 20260903134204 | 59 | 270 | 6.0 | 10.0 | 0.00 | 0.03 | 0.00 | 98 | 1014.0 |
| 20260903133603 | 59 | 271 | 6.0 | 10.0 | 0.00 | 0.03 | 0.00 | 98 | 1014.0 |
| 20260903133003 | 59 | 272 | 6.0 | 11.0 | 0.00 | 0.03 | 0.00 | 98 | 1014.0 |
| 20260903132403 | 59 | 273 | 6.0 | 11.0 | 0.00 | 0.03 | 0.00 | 98 | 1014.0 |
| 20260903131803 | 59 | 273 | 5.0 | 10.0 | 0.00 | 0.03 | 0.00 | 98 | 1014.0 |
| 20260903131203 | 59 | 271 | 4.0 | 9.0 | 0.00 | 0.03 | 0.00 | 98 | 1014.0 |
| 20260903130603 | 59 | 273 | 5.0 | 10.0 | 0.00 | 0.03 | 0.00 | 98 | 1014.1 |
| 20260903130004 | 59 | 273 | 5.0 | 10.0 | 0.00 | 0.03 | 0.00 | 98 | 1014.1 |
| 20260903125403 | 59 | 271 | 4.0 | 8.0 | 0.00 | 0.03 | 0.00 | 98 | 1014.1 |
| 20260903124803 | 59 | 274 | 4.0 | 8.0 | 0.00 | 0.03 | 0.00 | 98 | 1014.0 |
| 20260903124203 | 59 | 274 | 4.0 | 8.0 | 0.00 | 0.03 | 0.00 | 98 | 1014.1 |
| 20260903123603 | 59 | 273 | 4.0 | 8.0 | 0.00 | 0.03 | 0.00 | 98 | 1014.1 |
| 20260903123003 | 59 | 273 | 4.0 | 9.0 | 0.00 | 0.03 | 0.00 | 98 | 1014.2 |
| 20260903122403 | 59 | 275 | 4.0 | 9.0 | 0.00 | 0.03 | 0.00 | 98 | 1014.1 |
| 20260903121803 | 59 | 273 | 3.0 | 7.0 | 0.00 | 0.03 | 0.00 | 98 | 1014.2 |
| 20260903121203 | 59 | 272 | 3.0 | 6.0 | 0.00 | 0.03 | 0.00 | 98 | 1014.3 |
| 20260903120603 | 59 | 271 | 3.0 | 7.0 | 0.00 | 0.03 | 0.00 | 98 | 1014.3 |
| 20260903120003 | 59 | 272 | 3.0 | 8.0 | 0.00 | 0.03 | 0.00 | 98 | 1014.3 |
| 20260903115403 | 59 | 272 | 3.0 | 6.0 | 0.00 | 0.03 | 0.00 | 98 | 1014.4 |
| 20260903114803 | 59 | 271 | 3.0 | 6.0 | 0.00 | 0.03 | 0.00 | 98 | 1014.5 |
| 20260903114203 | 59 | 274 | 3.0 | 8.0 | 0.00 | 0.03 | 0.00 | 98 | 1014.5 |
| 20260903113604 | 59 | 275 | 3.0 | 7.0 | 0.00 | 0.03 | 0.00 | 98 | 1014.6 |
| 20260903113004 | 59 | 272 | 3.0 | 6.0 | 0.00 | 0.03 | 0.00 | 97 | 1014.5 |
| 20260903112404 | 59 | 272 | 3.0 | 6.0 | 0.00 | 0.03 | 0.00 | 97 | 1014.6 |
| 20260903111804 | 59 | 270 | 3.0 | 6.0 | 0.00 | 0.03 | 0.00 | 97 | 1014.7 |
| 20260903111204 | 60 | 268 | 3.0 | 6.0 | 0.00 | 0.03 | 0.00 | 97 | 1014.8 |
| 20260903110604 | 60 | 268 | 2.0 | 6.0 | 0.00 | 0.03 | 0.00 | 97 | 1014.8 |
| 20260903110004 | 60 | 269 | 3.0 | 4.0 | 0.00 | 0.03 | 0.00 | 97 | 1014.8 |
| 20260903105403 | 60 | 272 | 3.0 | 6.0 | 0.00 | 0.03 | 0.00 | 97 | 1014.9 |
| 20260903104806 | 60 | 275 | 3.0 | 7.0 | 0.00 | 0.03 | 0.00 | 97 | 1014.9 |
| 20260903104203 | 60 | 272 | 3.0 | 7.0 | 0.00 | 0.03 | 0.00 | 97 | 1014.9 |
| 20260903103603 | 60 | 270 | 3.0 | 6.0 | 0.00 | 0.03 | 0.00 | 97 | 1015.0 |
| 20260903103003 | 60 | 273 | 3.0 | 6.0 | 0.00 | 0.03 | 0.00 | 96 | 1014.9 |
| 20260903102403 | 60 | 270 | 3.0 | 6.0 | 0.00 | 0.03 | 0.00 | 96 | 1015.0 |
| 20260903101803 | 60 | 265 | 2.0 | 4.0 | 0.00 | 0.03 | 0.00 | 96 | 1014.9 |
| 20260903101203 | 60 | 267 | 3.0 | 7.0 | 0.00 | 0.03 | 0.00 | 96 | 1014.9 |
| 20260903100603 | 60 | 271 | 4.0 | 7.0 | 0.00 | 0.03 | 0.00 | 96 | 1015.0 |
| 20260903100003 | 60 | 270 | 3.0 | 7.0 | 0.00 | 0.03 | 0.00 | 96 | 1015.0 |
| 20260903095403 | 60 | 270 | 3.0 | 6.0 | 0.00 | 0.03 | 0.00 | 96 | 1015.0 |
| 20260903094803 | 60 | 272 | 3.0 | 6.0 | 0.00 | 0.03 | 0.00 | 96 | 1015.1 |
| 20260903094203 | 60 | 273 | 3.0 | 4.0 | 0.00 | 0.03 | 0.00 | 96 | 1015.1 |
| 20260903093603 | 60 | 272 | 3.0 | 6.0 | 0.00 | 0.03 | 0.00 | 96 | 1015.1 |
| 20260903093003 | 60 | 271 | 2.0 | 6.0 | 0.00 | 0.03 | 0.00 | 96 | 1015.1 |
| 20260903092404 | 59 | 269 | 3.0 | 6.0 | 0.00 | 0.03 | 0.00 | 96 | 1015.2 |
| 20260903091804 | 59 | 271 | 3.0 | 6.0 | 0.00 | 0.03 | 0.00 | 96 | 1015.2 |
| 20260903091204 | 59 | 267 | 4.0 | 7.0 | 0.00 | 0.03 | 0.00 | 96 | 1015.2 |
| 20260903090604 | 59 | 269 | 4.0 | 7.0 | 0.00 | 0.03 | 0.00 | 96 | 1015.3 |
| 20260903090004 | 59 | 272 | 5.0 | 10.0 | 0.00 | 0.03 | 0.00 | 96 | 1015.4 |
| 20260903085403 | 59 | 269 | 5.0 | 10.0 | 0.00 | 0.03 | 0.00 | 96 | 1015.4 |
| 20260903084803 | 59 | 266 | 5.0 | 8.0 | 0.00 | 0.03 | 0.00 | 96 | 1015.4 |
| 20260903084203 | 59 | 267 | 6.0 | 8.0 | 0.00 | 0.03 | 0.00 | 96 | 1015.4 |
| 20260903083603 | 59 | 267 | 6.0 | 8.0 | 0.00 | 0.03 | 0.00 | 96 | 1015.4 |
| 20260903083004 | 59 | 267 | 5.0 | 8.0 | 0.00 | 0.03 | 0.00 | 96 | 1015.3 |
| 20260903082403 | 59 | 267 | 4.0 | 7.0 | 0.00 | 0.03 | 0.00 | 96 | 1015.4 |
| 20260903081803 | 59 | 265 | 4.0 | 9.0 | 0.00 | 0.03 | 0.00 | 96 | 1015.4 |
| 20260903081203 | 59 | 266 | 5.0 | 7.0 | 0.00 | 0.03 | 0.00 | 96 | 1015.4 |
| 20260903080603 | 59 | 267 | 4.0 | 7.0 | 0.00 | 0.03 | 0.00 | 96 | 1015.4 |
| 20260903080003 | 59 | 266 | 4.0 | 7.0 | 0.00 | 0.03 | 0.00 | 96 | 1015.4 |
| 20260903075403 | 59 | 266 | 5.0 | 8.0 | 0.00 | 0.03 | 0.00 | 96 | 1015.4 |
| 20260903074803 | 59 | 267 | 5.0 | 10.0 | 0.00 | 0.03 | 0.00 | 96 | 1015.4 |
| 20260903074203 | 59 | 265 | 5.0 | 10.0 | 0.00 | 0.03 | 0.00 | 96 | 1015.4 |
| 20260903073603 | 59 | 267 | 5.0 | 10.0 | 0.00 | 0.03 | 0.00 | 96 | 1015.5 |
| 20260903073003 | 59 | 268 | 5.0 | 10.0 | 0.00 | 0.03 | 0.00 | 96 | 1015.5 |
| 20260903072403 | 59 | 268 | 5.0 | 8.0 | 0.00 | 0.03 | 0.00 | 96 | 1015.4 |
| 20260903071803 | 59 | 268 | 5.0 | 7.0 | 0.00 | 0.03 | 0.00 | 96 | 1015.4 |
| 20260903071204 | 59 | 266 | 4.0 | 7.0 | 0.00 | 0.03 | 0.00 | 96 | 1015.4 |
| 20260903070604 | 59 | 261 | 4.0 | 7.0 | 0.00 | 0.03 | 0.00 | 96 | 1015.4 |
| 20260903070004 | 59 | 264 | 3.0 | 6.0 | 0.00 | 0.03 | 0.00 | 96 | 1015.4 |
| 20260903065404 | 59 | 264 | 4.0 | 7.0 | 0.00 | 0.03 | 0.03 | 96 | 1015.5 |
| 20260903064804 | 59 | 263 | 4.0 | 7.0 | 0.00 | 0.03 | 0.03 | 96 | 1015.4 |
| 20260903064204 | 59 | 262 | 4.0 | 7.0 | 0.00 | 0.03 | 0.03 | 96 | 1015.5 |
| 20260903063603 | 59 | 264 | 6.0 | 11.0 | 0.00 | 0.03 | 0.03 | 95 | 1015.5 |
| 20260903063004 | 59 | 267 | 7.0 | 12.0 | 0.00 | 0.03 | 0.03 | 95 | 1015.5 |
| 20260903062404 | 59 | 268 | 8.0 | 11.0 | 0.00 | 0.03 | 0.03 | 95 | 1015.6 |
| 20260903061803 | 59 | 268 | 7.0 | 11.0 | 0.00 | 0.03 | 0.03 | 95 | 1015.6 |
| 20260903061203 | 59 | 270 | 7.0 | 11.0 | 0.00 | 0.03 | 0.03 | 95 | 1015.7 |
| 20260903060603 | 59 | 267 | 6.0 | 9.0 | 0.00 | 0.03 | 0.03 | 95 | 1015.7 |
| 20260903060004 | 59 | 264 | 5.0 | 9.0 | 0.00 | 0.03 | 0.03 | 95 | 1015.8 |
| 20260903055403 | 59 | 264 | 6.0 | 9.0 | 0.00 | 0.03 | 0.03 | 95 | 1015.8 |
| 20260903054803 | 59 | 267 | 6.0 | 9.0 | 0.00 | 0.03 | 0.03 | 95 | 1015.8 |
| 20260903054203 | 59 | 265 | 7.0 | 10.0 | 0.00 | 0.03 | 0.03 | 95 | 1015.9 |
| 20260903053603 | 59 | 265 | 7.0 | 10.0 | 0.00 | 0.03 | 0.03 | 95 | 1015.9 |
| 20260903053003 | 59 | 267 | 6.0 | 9.0 | 0.00 | 0.03 | 0.03 | 95 | 1016.0 |
| 20260903052403 | 59 | 270 | 5.0 | 11.0 | 0.00 | 0.03 | 0.03 | 95 | 1016.0 |
| 20260903051803 | 59 | 268 | 5.0 | 9.0 | 0.00 | 0.03 | 0.03 | 95 | 1016.1 |
| 20260903051203 | 59 | 264 | 5.0 | 9.0 | 0.00 | 0.03 | 0.03 | 94 | 1016.1 |
| 20260903050603 | 59 | 265 | 5.0 | 9.0 | 0.00 | 0.03 | 0.03 | 94 | 1016.1 |
| 20260903050003 | 59 | 263 | 5.0 | 9.0 | 0.00 | 0.03 | 0.03 | 94 | 1016.2 |
| 20260903045403 | 59 | 259 | 5.0 | 9.0 | 0.00 | 0.03 | 0.03 | 94 | 1016.1 |
| 20260903044804 | 60 | 260 | 7.0 | 12.0 | 0.00 | 0.03 | 0.03 | 94 | 1016.1 |
| 20260903044204 | 60 | 267 | 8.0 | 12.0 | 0.00 | 0.03 | 0.03 | 94 | 1016.1 |
| 20260903043603 | 60 | 268 | 8.0 | 12.0 | 0.00 | 0.03 | 0.03 | 94 | 1016.0 |
| 20260903043003 | 60 | 269 | 8.0 | 12.0 | 0.00 | 0.03 | 0.03 | 94 | 1016.0 |
| 20260903042403 | 60 | 267 | 8.0 | 12.0 | 0.00 | 0.03 | 0.03 | 94 | 1016.0 |
| 20260903041803 | 60 | 266 | 8.0 | 12.0 | 0.00 | 0.03 | 0.03 | 94 | 1016.0 |
| 20260903041203 | 60 | 266 | 7.0 | 11.0 | 0.00 | 0.03 | 0.03 | 94 | 1015.8 |
| 20260903040603 | 60 | 266 | 7.0 | 10.0 | 0.00 | 0.03 | 0.03 | 94 | 1015.8 |
| 20260903040003 | 60 | 267 | 7.0 | 11.0 | 0.00 | 0.03 | 0.03 | 93 | 1015.7 |
| 20260903035403 | 60 | 265 | 7.0 | 11.0 | 0.00 | 0.03 | 0.03 | 93 | 1015.6 |
| 20260903034803 | 60 | 262 | 6.0 | 10.0 | 0.00 | 0.03 | 0.03 | 93 | 1015.6 |
| 20260903034203 | 60 | 264 | 6.0 | 15.0 | 0.00 | 0.03 | 0.03 | 93 | 1015.4 |
| 20260903033603 | 60 | 262 | 7.0 | 15.0 | 0.00 | 0.03 | 0.03 | 93 | 1015.5 |
| 20260903033004 | 60 | 263 | 8.0 | 12.0 | 0.00 | 0.03 | 0.03 | 93 | 1015.4 |
| 20260903032404 | 60 | 263 | 8.0 | 12.0 | 0.00 | 0.03 | 0.03 | 93 | 1015.3 |
| 20260903031804 | 60 | 263 | 8.0 | 12.0 | 0.00 | 0.03 | 0.03 | 94 | 1015.2 |
| 20260903031204 | 60 | 264 | 8.0 | 11.0 | 0.00 | 0.03 | 0.03 | 94 | 1015.1 |
| 20260903030604 | 60 | 263 | 8.0 | 11.0 | 0.00 | 0.03 | 0.03 | 93 | 1015.1 |
| 20260903030004 | 60 | 263 | 8.0 | 14.0 | 0.00 | 0.03 | 0.03 | 92 | 1015.1 |
| 20260903025403 | 60 | 265 | 9.0 | 14.0 | 0.00 | 0.03 | 0.03 | 92 | 1015.0 |
| 20260903024803 | 60 | 267 | 11.0 | 17.0 | 0.00 | 0.03 | 0.03 | 91 | 1015.0 |
| 20260903024204 | 61 | 267 | 10.0 | 17.0 | 0.00 | 0.03 | 0.03 | 91 | 1015.0 |
| 20260903023603 | 61 | 265 | 9.0 | 14.0 | 0.00 | 0.03 | 0.03 | 90 | 1015.1 |
| 20260903023003 | 61 | 263 | 9.0 | 13.0 | 0.00 | 0.03 | 0.03 | 89 | 1015.1 |
| 20260903022403 | 62 | 267 | 8.0 | 12.0 | 0.00 | 0.03 | 0.03 | 88 | 1015.2 |
| 20260903021803 | 62 | 265 | 8.0 | 12.0 | 0.00 | 0.03 | 0.03 | 87 | 1015.3 |
| 20260903021203 | 63 | 262 | 8.0 | 12.0 | 0.00 | 0.03 | 0.03 | 87 | 1015.3 |
| 20260903020603 | 63 | 263 | 7.0 | 12.0 | 0.00 | 0.03 | 0.03 | 86 | 1015.3 |
| 20260903020004 | 63 | 264 | 7.0 | 12.0 | 0.00 | 0.03 | 0.03 | 86 | 1015.4 |
| 20260903015403 | 63 | 267 | 7.0 | 12.0 | 0.00 | 0.03 | 0.03 | 85 | 1015.4 |
| 20260903014803 | 64 | 264 | 8.0 | 13.0 | 0.00 | 0.03 | 0.03 | 85 | 1015.4 |
| 20260903014203 | 64 | 263 | 8.0 | 15.0 | 0.00 | 0.03 | 0.03 | 85 | 1015.5 |
| 20260903013603 | 64 | 263 | 8.0 | 15.0 | 0.00 | 0.03 | 0.03 | 84 | 1015.5 |
| 20260903013003 | 64 | 264 | 8.0 | 13.0 | 0.00 | 0.03 | 0.03 | 84 | 1015.6 |
| 20260903012403 | 64 | 265 | 9.0 | 13.0 | 0.00 | 0.03 | 0.03 | 84 | 1015.6 |
| 20260903011803 | 65 | 266 | 9.0 | 14.0 | 0.00 | 0.03 | 0.03 | 83 | 1015.6 |
| 20260903011204 | 65 | 266 | 9.0 | 14.0 | 0.00 | 0.03 | 0.03 | 83 | 1015.5 |
| 20260903010604 | 66 | 264 | 9.0 | 16.0 | 0.00 | 0.03 | 0.03 | 82 | 1015.5 |
| 20260903010004 | 66 | 265 | 9.0 | 16.0 | 0.00 | 0.03 | 0.03 | 82 | 1015.6 |
| 20260903005404 | 66 | 266 | 9.0 | 16.0 | 0.00 | 0.03 | 0.03 | 81 | 1015.6 |
| 20260903004803 | 66 | 267 | 9.0 | 16.0 | 0.00 | 0.03 | 0.03 | 80 | 1015.5 |
| 20260903004203 | 66 | 263 | 9.0 | 14.0 | 0.00 | 0.03 | 0.03 | 80 | 1015.5 |
| 20260903003603 | 66 | 265 | 9.0 | 16.0 | 0.00 | 0.03 | 0.03 | 80 | 1015.6 |
| 20260903003003 | 67 | 265 | 8.0 | 13.0 | 0.00 | 0.03 | 0.03 | 80 | 1015.6 |
| 20260903002403 | 66 | 267 | 9.0 | 13.0 | 0.00 | 0.03 | 0.03 | 81 | 1015.7 |
| 20260903001803 | 66 | 268 | 9.0 | 14.0 | 0.00 | 0.03 | 0.03 | 81 | 1015.7 |
| 20260903001203 | 66 | 266 | 10.0 | 16.0 | 0.00 | 0.03 | 0.03 | 80 | 1015.8 |
| 20260903000603 | 66 | 268 | 10.0 | 16.0 | 0.00 | 0.03 | 0.03 | 80 | 1015.9 |
| 20260903000004 | 66 | 266 | 10.0 | 16.0 | 0.00 | 0.03 | 0.03 | 80 | 1015.8 |
| 20260902235403 | 66 | 266 | 10.0 | 16.0 | 0.00 | 0.03 | 0.03 | 80 | 1015.9 |
| 20260902234803 | 66 | 268 | 11.0 | 16.0 | 0.00 | 0.03 | 0.03 | 80 | 1015.9 |
| 20260902234203 | 66 | 265 | 11.0 | 16.0 | 0.00 | 0.03 | 0.03 | 80 | 1016.0 |
| 20260902233603 | 66 | 267 | 11.0 | 16.0 | 0.00 | 0.03 | 0.03 | 80 | 1016.0 |
| 20260902233003 | 66 | 271 | 11.0 | 16.0 | 0.00 | 0.03 | 0.03 | 80 | 1016.0 |
| 20260902232403 | 66 | 269 | 10.0 | 16.0 | 0.00 | 0.03 | 0.03 | 80 | 1016.0 |
| 20260902231803 | 66 | 269 | 10.0 | 15.0 | 0.00 | 0.03 | 0.03 | 82 | 1016.0 |
| 20260902231203 | 66 | 271 | 10.0 | 15.0 | 0.00 | 0.03 | 0.03 | 81 | 1016.1 |
| 20260902230004 | 66 | 266 | 10.0 | 15.0 | 0.00 | 0.03 | 0.03 | 81 | 1016.1 |
| 20260902225404 | 67 | 265 | 10.0 | 14.0 | 0.00 | 0.03 | 0.03 | 79 | 1016.2 |
| 20260902224804 | 66 | 268 | 10.0 | 16.0 | 0.00 | 0.03 | 0.03 | 80 | 1016.3 |
| 20260902224204 | 67 | 270 | 11.0 | 16.0 | 0.00 | 0.03 | 0.03 | 78 | 1016.2 |
| 20260902223604 | 67 | 268 | 11.0 | 16.0 | 0.00 | 0.03 | 0.03 | 78 | 1016.2 |
| 20260902223003 | 67 | 267 | 11.0 | 16.0 | 0.00 | 0.03 | 0.03 | 79 | 1016.3 |
| 20260902222403 | 67 | 263 | 11.0 | 16.0 | 0.00 | 0.03 | 0.03 | 77 | 1016.3 |
| 20260902221803 | 67 | 265 | 10.0 | 16.0 | 0.00 | 0.03 | 0.03 | 77 | 1016.4 |
| 20260902221203 | 67 | 265 | 10.0 | 15.0 | 0.00 | 0.03 | 0.03 | 77 | 1016.4 |
| 20260902220603 | 68 | 266 | 9.0 | 15.0 | 0.00 | 0.03 | 0.03 | 77 | 1016.4 |
| 20260902220003 | 68 | 267 | 10.0 | 17.0 | 0.00 | 0.03 | 0.03 | 78 | 1016.5 |
| 20260902215404 | 67 | 267 | 10.0 | 17.0 | 0.00 | 0.03 | 0.03 | 78 | 1016.7 |
| 20260902214803 | 67 | 268 | 11.0 | 15.0 | 0.00 | 0.03 | 0.03 | 78 | 1016.7 |
| 20260902214203 | 67 | 269 | 11.0 | 15.0 | 0.00 | 0.03 | 0.03 | 79 | 1016.7 |
| 20260902213603 | 67 | 268 | 10.0 | 15.0 | 0.00 | 0.03 | 0.03 | 81 | 1016.7 |
| 20260902213003 | 67 | 268 | 10.0 | 14.0 | 0.00 | 0.03 | 0.03 | 81 | 1016.8 |
| 20260902212403 | 67 | 268 | 10.0 | 15.0 | 0.00 | 0.03 | 0.03 | 83 | 1016.8 |
| 20260902211803 | 67 | 268 | 10.0 | 15.0 | 0.00 | 0.03 | 0.03 | 82 | 1016.8 |
| 20260902211203 | 67 | 267 | 10.0 | 15.0 | 0.00 | 0.03 | 0.03 | 82 | 1016.8 |
| 20260902210603 | 66 | 267 | 9.0 | 13.0 | 0.00 | 0.03 | 0.03 | 84 | 1016.8 |
| 20260902210003 | 66 | 268 | 9.0 | 14.0 | 0.00 | 0.03 | 0.03 | 86 | 1016.8 |
| 20260902205403 | 66 | 272 | 10.0 | 14.0 | 0.00 | 0.03 | 0.03 | 87 | 1016.8 |
| 20260902204803 | 65 | 269 | 9.0 | 14.0 | 0.00 | 0.03 | 0.03 | 88 | 1016.8 |
| 20260902204204 | 65 | 269 | 10.0 | 15.0 | 0.00 | 0.03 | 0.03 | 89 | 1016.9 |
| 20260902203604 | 64 | 269 | 10.0 | 15.0 | 0.00 | 0.03 | 0.03 | 90 | 1016.9 |
| 20260902203004 | 64 | 269 | 10.0 | 14.0 | 0.00 | 0.03 | 0.03 | 92 | 1017.0 |
| 20260902202404 | 63 | 271 | 10.0 | 14.0 | 0.00 | 0.03 | 0.03 | 91 | 1017.0 |
| 20260902201804 | 63 | 269 | 10.0 | 15.0 | 0.00 | 0.03 | 0.03 | 92 | 1017.1 |
| 20260902201203 | 63 | 271 | 9.0 | 14.0 | 0.00 | 0.03 | 0.03 | 93 | 1017.0 |
| 20260902200604 | 63 | 273 | 9.0 | 13.0 | 0.00 | 0.03 | 0.03 | 94 | 1017.2 |
| 20260902200003 | 63 | 269 | 9.0 | 13.0 | 0.00 | 0.03 | 0.03 | 94 | 1017.2 |
| 20260902195403 | 63 | 267 | 8.0 | 13.0 | 0.00 | 0.03 | 0.03 | 94 | 1017.3 |
| 20260902194803 | 62 | 273 | 7.0 | 13.0 | 0.00 | 0.03 | 0.03 | 95 | 1017.3 |
| 20260902194203 | 62 | 269 | 6.0 | 11.0 | 0.00 | 0.03 | 0.03 | 95 | 1017.3 |
| 20260902193603 | 62 | 269 | 6.0 | 10.0 | 0.00 | 0.03 | 0.03 | 96 | 1017.4 |
| 20260902193003 | 62 | 270 | 7.0 | 10.0 | 0.00 | 0.03 | 0.03 | 96 | 1017.4 |
| 20260902192403 | 62 | 272 | 7.0 | 12.0 | 0.00 | 0.03 | 0.03 | 97 | 1017.4 |
| 20260902191803 | 61 | 270 | 8.0 | 12.0 | 0.00 | 0.03 | 0.03 | 97 | 1017.4 |
| 20260902191203 | 61 | 269 | 9.0 | 14.0 | 0.00 | 0.03 | 0.03 | 97 | 1017.5 |
| 20260902190603 | 61 | 268 | 9.0 | 14.0 | 0.00 | 0.03 | 0.03 | 97 | 1017.4 |
| 20260902190003 | 61 | 265 | 8.0 | 14.0 | 0.00 | 0.03 | 0.03 | 97 | 1017.4 |
| 20260902185403 | 61 | 268 | 8.0 | 12.0 | 0.00 | 0.03 | 0.03 | 97 | 1017.5 |
| 20260902184803 | 61 | 271 | 8.0 | 16.0 | 0.00 | 0.03 | 0.03 | 97 | 1017.3 |
| 20260902184203 | 61 | 269 | 9.0 | 16.0 | 0.00 | 0.03 | 0.03 | 97 | 1017.4 |
| 20260902183604 | 61 | 267 | 9.0 | 14.0 | 0.00 | 0.03 | 0.03 | 98 | 1017.4 |
| 20260902183004 | 61 | 270 | 9.0 | 17.0 | 0.00 | 0.03 | 0.03 | 98 | 1017.4 |
| 20260902182404 | 61 | 269 | 9.0 | 17.0 | 0.00 | 0.03 | 0.03 | 98 | 1017.3 |
| 20260902181804 | 61 | 269 | 9.0 | 13.0 | 0.00 | 0.03 | 0.03 | 98 | 1017.3 |
| 20260902181204 | 61 | 269 | 8.0 | 12.0 | 0.00 | 0.03 | 0.03 | 98 | 1017.2 |
| 20260902180603 | 61 | 269 | 8.0 | 12.0 | 0.00 | 0.03 | 0.03 | 98 | 1017.2 |
| 20260902180006 | 61 | 269 | 8.0 | 11.0 | 0.00 | 0.03 | 0.03 | 98 | 1017.2 |
| 20260902175403 | 61 | 269 | 7.0 | 11.0 | 0.01 | 0.03 | 0.03 | 98 | 1017.1 |
| 20260902174803 | 60 | 269 | 7.0 | 11.0 | 0.01 | 0.03 | 0.03 | 98 | 1017.1 |
| 20260902174204 | 61 | 270 | 6.0 | 11.0 | 0.01 | 0.03 | 0.03 | 98 | 1017.0 |
| 20260902173603 | 60 | 270 | 7.0 | 12.0 | 0.03 | 0.03 | 0.03 | 98 | 1016.8 |
| 20260902173003 | 60 | 270 | 7.0 | 12.0 | 0.03 | 0.03 | 0.03 | 98 | 1016.7 |
| 20260902172403 | 60 | 268 | 7.0 | 13.0 | 0.03 | 0.03 | 0.03 | 98 | 1016.6 |
| 20260902171803 | 60 | 270 | 8.0 | 13.0 | 0.03 | 0.03 | 0.03 | 97 | 1016.6 |
| 20260902171203 | 60 | 270 | 8.0 | 12.0 | 0.03 | 0.03 | 0.03 | 97 | 1016.5 |
| 20260902170603 | 60 | 269 | 8.0 | 14.0 | 0.03 | 0.03 | 0.03 | 97 | 1016.5 |
| 20260902170003 | 60 | 269 | 8.0 | 14.0 | 0.03 | 0.03 | 0.03 | 97 | 1016.5 |
| 20260902165403 | 60 | 269 | 8.0 | 13.0 | 0.01 | 0.01 | 0.01 | 96 | 1016.6 |
| 20260902164803 | 61 | 269 | 8.0 | 13.0 | 0.01 | 0.01 | 0.01 | 96 | 1016.4 |
| 20260902164203 | 61 | 270 | 8.0 | 17.0 | 0.00 | 0.00 | 0.00 | 95 | 1016.3 |
| 20260902163603 | 61 | 272 | 9.0 | 17.0 | 0.00 | 0.00 | 0.00 | 95 | 1016.3 |
| 20260902163003 | 61 | 272 | 9.0 | 14.0 | 0.00 | 0.00 | 0.00 | 94 | 1016.3 |
| 20260902162403 | 61 | 271 | 9.0 | 15.0 | 0.00 | 0.00 | 0.00 | 93 | 1016.2 |
| 20260902161804 | 61 | 269 | 8.0 | 15.0 | 0.00 | 0.00 | 0.00 | 93 | 1016.2 |
| 20260902161204 | 61 | 269 | 8.0 | 14.0 | 0.00 | 0.00 | 0.00 | 93 | 1016.3 |
| 20260902160604 | 61 | 269 | 9.0 | 13.0 | 0.00 | 0.00 | 0.00 | 93 | 1016.3 |
| 20260902160006 | 61 | 269 | 9.0 | 14.0 | 0.00 | 0.00 | 0.00 | 92 | 1016.2 |
| 20260902155404 | 61 | 269 | 8.0 | 14.0 | 0.00 | 0.00 | 0.00 | 92 | 1016.2 |
| 20260902154804 | 61 | 271 | 7.0 | 11.0 | 0.00 | 0.00 | 0.00 | 92 | 1016.1 |
| 20260902154203 | 60 | 271 | 5.0 | 10.0 | 0.00 | 0.00 | 0.00 | 92 | 1016.2 |
| 20260902153603 | 60 | 273 | 5.0 | 7.0 | 0.00 | 0.00 | 0.00 | 93 | 1016.2 |
| 20260902153003 | 60 | 275 | 4.0 | 7.0 | 0.00 | 0.00 | 0.00 | 93 | 1016.3 |
| 20260902152403 | 60 | 273 | 3.0 | 7.0 | 0.00 | 0.00 | 0.00 | 93 | 1016.5 |
| 20260902151803 | 60 | 273 | 3.0 | 7.0 | 0.00 | 0.00 | 0.00 | 93 | 1016.4 |
| 20260902151203 | 60 | 277 | 3.0 | 7.0 | 0.00 | 0.00 | 0.00 | 94 | 1016.3 |
| 20260902150603 | 59 | 274 | 3.0 | 7.0 | 0.00 | 0.00 | 0.00 | 94 | 1016.3 |
| 20260902150003 | 59 | 273 | 3.0 | 6.0 | 0.00 | 0.00 | 0.00 | 95 | 1016.1 |
| 20260902145403 | 59 | 273 | 3.0 | 6.0 | 0.00 | 0.00 | 0.00 | 95 | 1016.0 |
| 20260902144803 | 59 | 271 | 3.0 | 6.0 | 0.00 | 0.00 | 0.00 | 95 | 1016.0 |
| 20260902144203 | 59 | 272 | 3.0 | 6.0 | 0.00 | 0.00 | 0.00 | 94 | 1015.8 |